Back to catalog

ATLAS 5 CENTAUR DEB

AliveHEO
NORAD 49359·DEBRIS·🇺🇸 United States

Launched Oct 17, 2018 from Cape Canaveral Space Force Station

Loading…

Next Passes (next 24 hours)

TLE

FreshSource: Space-Track

Epoch: Sep 9, 2026, 02:17 UTC

1 49359U 18079FL  26252.09576259 -.00000202  00000-0  00000-0 0  9990
2 49359  13.4202  14.5741 4717163   0.7721 359.6201  1.87005977 34357

Track ATLAS 5 CENTAUR DEB in real time with AllMySat

Download on the App Store